Home   Weather   Daytona Beach   Past weeks

Flag for USA Past Weather in Daytona Beach, Florida, USA — Yesterday and Last 2 Weeks

Now
55 °F

Passing clouds.


Feels Like: 53 °F
Forecast: 56 / 67 °F
Wind: 7 mph from North

Location: Daytona Beach Regional Airport

Current Time: Dec 9, 2016 at 10:12:04 pm

Latest Report: Dec 9, 2016 at 8:53 pm


Visibility: 10 mi

Pressure: 30.35 "Hg

Humidity: 64%

Dew Point: 43 °F

Location of Daytona BeachLocation

Past Weather in Daytona Beach — Graph

°F

Daytona Beach Temperature Yesterday

Maximum temperature yesterday: 70 °F (at 12:53 pm)
Minimum temperature yesterday: 53 °F (at 6:53 am)
Average temperature yesterday: 61 °F

High & Low Weather Summary for the Past Weeks

 TemperatureHumidityPressure
High85 °F (Dec 5, 1:53 pm)100% (Nov 24, 9:53 pm)30.35 "Hg (Nov 24, 9:53 pm)
Low49 °F (Dec 3, 6:53 am)30% (Nov 26, 2:53 pm)29.81 "Hg (Dec 6, 1:53 pm)
Average67 °F78%30.07 "Hg
* Reported Nov 24 8:53 pm — Dec 9 8:53 pm, Daytona Beach, Weather by CustomWeather, © 2016

Note: Actual official high and low records may vary slightly from our data, if they occured in-between our weather recording intervals... More about our weather records

Advertising

Daytona Beach Weather History for the Previous 24 Hours

Scroll right to see more
 ConditionsComfort  
Time TempWeatherWind HumidityBarometerVisibility
8:53 pm
Fri, Dec 9
55 °FPassing clouds.7 mph64%30.35 "Hg10 mi
7:53 pm57 °FPassing clouds.13 mph62%30.34 "Hg10 mi
6:53 pm57 °FPassing clouds.13 mph60%30.33 "Hg10 mi
5:53 pm56 °FPassing clouds.9 mph65%30.33 "Hg10 mi
4:53 pm57 °FPassing clouds.13 mph60%30.31 "Hg10 mi
3:53 pm59 °FPassing clouds.21 mph56%30.29 "Hg10 mi
2:53 pm59 °FScattered clouds.20 mph58%30.29 "Hg10 mi
1:53 pm60 °FScattered clouds.21 mph60%30.29 "Hg10 mi
12:53 pm59 °FPartly sunny.21 mph62%30.29 "Hg10 mi
11:53 am55 °FPartly sunny.10 mph69%30.32 "Hg10 mi
10:53 am54 °FPartly sunny.9 mph64%30.35 "Hg10 mi
9:53 am51 °FBroken clouds.9 mph63%30.33 "Hg10 mi
8:53 am50 °FMore clouds than sun.9 mph66%30.31 "Hg10 mi
7:53 am50 °FLight rain. More clouds than sun.9 mph68%30.29 "Hg10 mi
6:53 am50 °FOvercast.10 mph66%30.27 "Hg10 mi
5:53 am50 °FLight rain. Mostly cloudy.12 mph77%30.24 "Hg10 mi
4:53 am52 °FLight rain. Overcast.9 mph83%30.23 "Hg10 mi
3:53 am52 °FLight rain. Overcast.9 mph86%30.24 "Hg10 mi
2:53 am54 °FLight rain. Overcast.7 mph83%30.20 "Hg10 mi
1:53 am55 °FLight rain. Overcast.8 mph80%30.22 "Hg10 mi
12:53 am58 °FLight rain. Overcast.7 mph67%30.23 "Hg10 mi
11:53 pm
Thu, Dec 8
59 °FClear.7 mph64%30.21 "Hg10 mi
10:53 pm60 °FOvercast.7 mph69%30.21 "Hg10 mi
Weather by CustomWeather, © 2016

See weather overviewHow to use our weather pages